Theta_e
296 296 295 294 294 294 294 295 294 291 291 292 295 296 296 296 295 296 296 297 297 298 298 299 299 297 296 297 293 297 296 297 297 298 301 301 302 304 303 302 303 301 302 301 302 303 303 291 294 297 294 291 289 287
296 295 294 293 294 294 295 295 293 291 293 293 294 296 296 296 297 296 295 295 296 297 297 298 296 296 295 295 298 299 298 297 298 297 299 300 300 300 299 299 300 300 298 298 297 295 291 290 290 291 292 289 288 287
296 294 293 294 294 294 293 293 292 292 293 293 293 294 295 296 296 296 295 295 296 298 299 299 298 298 298 296 298 299 300 298 299 299 298 299 302 301 303 298 297 296 296 295 294 292 292 290 289 289 289 288 287 286
297 296 295 295 295 295 294 294 293 293 293 293 292 293 294 295 296 296 296 296 297 297 296 298 299 298 298 298 297 297 297 298 299 299 298 297 302 301 301 296 294 294 294 294 293 291 290 289 288 288 287 287 287 286
297 296 296 295 294 294 294 292 293 291 292 292 294 294 294 295 296 296 296 296 296 296 294 296 298 299 299 297 297 298 298 298 299 297 296 301 301 301 295 294 292 295 293 291 293 291 290 289 288 287 287 286 286 285
296 296 295 295 293 294 294 294 292 291 291 291 292 294 294 294 294 296 296 296 295 296 295 291 297 298 298 299 299 299 299 299 299 299 297 299 302 299 297 294 294 293 293 293 291 291 290 288 288 287 287 286 285 285
295 295 294 294 293 293 294 294 293 293 292 292 291 291 292 293 294 296 296 296 296 295 296 292 295 298 299 299 299 300 300 299 299 299 298 300 300 297 292 292 294 291 291 291 290 289 287 287 286 286 286 285 285 284
293 292 293 293 293 293 293 294 294 294 292 291 291 292 294 296 296 296 296 296 296 296 297 290 294 298 299 299 299 300 299 300 299 298 299 299 298 292 291 292 292 291 290 290 291 291 289 287 286 286 285 284 284 283
293 292 293 293 293 293 293 293 292 292 291 292 293 294 295 296 295 296 296 295 296 296 296 293 292 298 300 300 300 300 300 292 298 295 297 300 297 293 288 292 291 292 291 290 289 288 287 286 285 285 284 283 284 283
292 292 292 293 293 293 293 293 291 292 293 293 294 294 295 295 295 295 296 296 296 297 296 293 295 293 300 299 297 298 298 294 298 297 299 295 293 292 292 293 292 292 290 289 288 288 287 286 285 284 284 284 285 284
293 292 292 292 292 292 293 291 291 293 293 293 294 295 295 296 296 296 295 295 295 294 296 296 296 292 298 294 293 299 292 293 297 299 300 298 294 292 292 292 292 292 290 290 290 289 288 288 286 286 284 284 284 283
291 291 292 292 293 293 292 290 291 293 294 294 296 295 296 296 296 296 294 294 295 295 295 296 296 296 298 300 298 298 295 293 296 300 301 298 290 292 291 292 292 292 292 291 290 289 288 287 287 286 286 285 283 282
291 290 291 292 293 293 291 289 291 292 295 296 296 295 295 296 295 295 292 295 289 296 297 298 291 298 299 299 297 294 293 291 298 298 301 293 291 290 291 291 291 291 291 291 289 289 288 287 286 286 285 283 282 281
290 290 290 292 293 293 290 290 290 293 295 295 294 295 295 293 296 288 289 288 297 299 299 298 298 299 299 295 288 291 293 298 294 296 297 288 290 290 290 290 290 289 289 289 289 288 287 286 285 284 282 281 281 280
290 289 290 292 292 291 290 290 291 293 294 294 295 294 293 294 295 296 299 300 299 299 298 298 298 298 291 296 297 296 297 298 293 292 287 290 290 289 289 289 289 289 288 288 287 287 286 285 284 283 282 281 280 280
289 289 291 293 292 290 290 291 291 293 293 293 294 295 296 296 297 298 299 299 299 299 300 299 293 292 294 290 298 293 294 293 290 286 293 291 290 290 289 289 288 288 287 287 286 286 285 284 283 282 282 281 280 279
289 289 290 292 291 289 289 289 290 292 292 293 296 295 296 296 297 297 298 298 298 298 291 295 291 293 293 295 297 292 289 290 293 293 294 293 292 290 289 288 287 287 286 286 286 285 283 282 281 282 281 280 279 279
290 290 291 292 292 290 289 289 291 292 292 292 293 295 296 296 296 296 296 297 297 299 298 295 298 298 298 296 291 287 294 294 294 293 293 292 292 290 289 288 287 286 286 285 285 284 282 282 282 281 280 279 280 280
290 290 291 291 291 290 288 289 292 292 292 293 293 294 294 295 295 295 295 296 297 299 298 299 294 293 289 294 295 297 296 295 293 291 291 290 290 289 288 287 287 286 285 284 284 283 282 282 281 281 280 280 280 280
291 291 291 291 289 289 289 290 291 292 292 293 293 293 293 294 294 294 294 295 296 297 297 293 289 296 298 299 299 297 297 295 293 290 289 289 288 288 287 287 286 285 284 283 283 281 282 282 282 281 281 280 280 280
290 291 291 290 290 291 291 291 291 292 293 293 292 293 293 293 292 292 293 294 295 296 295 297 297 298 298 298 298 296 295 294 294 292 292 288 287 286 286 285 284 284 284 283 282 282 282 282 281 281 281 280 280 279
291 291 290 289 290 290 291 292 292 293 293 293 292 293 292 292 292 293 293 294 295 295 296 296 297 297 297 298 297 295 294 293 292 290 289 288 287 285 284 284 284 283 283 283 282 282 282 281 281 281 280 280 280 279
290 290 289 289 289 289 290 292 292 293 288 293 293 292 291 293 293 293 293 294 294 294 295 295 295 296 296 295 294 293 292 292 291 290 288 287 286 286 285 284 284 284 283 282 282 282 282 281 281 281 280 279 279 278
290 289 289 290 289 288 291 292 293 293 292 292 293 292 291 294 293 293 292 293 294 294 294 294 294 295 294 293 292 292 291 290 289 288 287 286 285 284 284 284 283 283 283 282 282 282 282 282 281 280 279 278 276 275
290 290 290 289 289 289 288 288 290 290 285 291 292 288 292 293 287 291 290 292 293 294 294 294 294 294 294 293 291 290 289 289 289 288 286 285 284 283 283 283 282 282 283 283 283 282 282 281 280 279 278 277 275 274
286 290 290 291 288 288 288 286 286 287 289 288 285 291 292 291 291 288 288 291 290 292 291 291 292 292 291 290 290 289 288 288 288 287 285 284 284 284 283 283 282 282 282 283 282 282 281 280 279 278 277 275 274 273
291 289 291 291 291 292 288 290 291 289 290 290 289 285 284 288 286 287 289 288 290 291 290 291 291 291 290 290 289 288 288 287 287 286 285 284 284 284 284 284 283 283 282 282 281 281 280 278 277 276 275 273 273 272
291 291 288 291 291 292 286 283 285 284 283 291 289 285 288 288 285 286 286 286 288 289 290 290 289 289 289 288 288 288 287 287 286 285 285 284 284 284 284 283 282 282 281 280 278 278 277 276 275 274 273 273 272 272
288 289 290 286 289 290 291 286 287 291 289 291 285 280 284 287 285 285 285 286 286 286 287 288 288 288 288 287 287 286 286 286 286 285 285 284 283 283 282 281 281 280 279 279 276 275 274 274 273 273 273 272 272 271
287 288 288 286 286 287 287 287 286 286 287 288 288 286 286 285 284 284 284 285 285 286 286 285 287 287 288 287 286 286 286 285 285 285 284 284 283 283 282 281 280 279 278 276 275 274 274 273 273 272 272 271 271 270
287 288 286 285 282 283 284 284 284 284 285 285 285 285 284 283 283 283 283 284 285 285 285 285 286 287 287 287 286 286 285 284 284 284 283 283 282 282 281 280 278 276 275 274 274 273 273 273 272 272 271 271 270 270
286 287 284 281 281 281 282 283 283 283 283 283 283 282 282 282 282 282 281 282 283 284 284 285 286 286 285 285 285 285 284 284 283 283 283 281 280 280 278 276 275 274 274 274 273 273 272 272 271 271 271 270 269 269
284 283 282 281 280 280 281 282 282 282 282 282 282 281 281 282 281 280 280 281 282 283 283 283 283 284 284 283 283 283 282 282 282 281 279 278 277 276 275 274 274 274 273 273 273 272 272 271 271 271 270 269 268 268
Wind_Speed
27 26 26 23 24 27 28 25 21 22 23 24 24 20 18 14 12 11 13 11 8 7 9 8 6 5 3 3 3 2 2 4 3 3 2 2 2 3 2 3 5 5 4 4 3 3 4 21 3 3 6 9 8 8
30 28 25 29 30 29 26 23 21 23 21 20 21 19 17 14 13 12 15 12 14 7 8 8 3 4 2 4 4 3 4 1 1 2 2 2 2 3 2 2 5 4 4 2 5 3 5 8 12 11 11 13 11 12
30 29 32 30 27 24 21 20 20 22 19 18 17 17 15 14 11 10 13 13 17 18 13 11 8 8 9 6 4 2 1 2 2 3 2 1 1 2 3 2 2 4 9 3 1 4 9 10 11 12 11 14 13 12
31 31 28 25 22 20 19 21 21 20 18 17 17 17 16 14 12 10 13 12 14 9 5 3 8 6 3 2 4 3 3 2 5 2 1 1 1 5 2 2 3 2 6 4 5 5 9 9 9 10 13 13 13 11
30 29 28 24 20 19 20 22 21 18 18 19 18 17 16 15 14 12 13 13 11 6 4 4 6 3 3 3 4 3 2 3 5 2 2 1 1 2 2 2 2 4 1 2 2 11 8 6 9 9 12 11 11 13
29 27 24 22 19 19 22 21 19 18 18 18 17 15 14 14 13 11 5 7 9 8 4 2 2 5 6 4 2 1 2 3 2 1 1 1 1 1 2 1 1 4 3 8 6 9 9 15 12 12 13 11 10 10
27 25 21 19 20 22 24 20 20 19 17 15 15 14 13 12 9 4 5 7 7 5 3 2 3 2 4 5 3 3 4 2 1 0 1 1 2 3 2 3 8 10 15 19 21 24 16 16 9 13 13 11 10 10
23 22 21 20 21 24 23 19 19 17 14 14 16 15 15 16 16 14 12 10 6 4 4 2 1 2 3 3 3 2 2 1 2 1 1 2 2 3 2 4 16 13 15 16 5 2 11 16 17 14 12 12 12 11
23 21 22 25 25 23 21 20 18 15 18 18 16 16 14 11 5 9 12 7 3 3 3 2 3 2 1 2 3 2 1 1 1 1 2 3 2 1 6 14 14 16 9 13 13 18 21 18 16 14 13 12 13 12
23 21 21 24 23 22 21 18 17 20 20 18 17 4 5 6 12 9 3 1 2 3 2 1 1 1 0 1 1 2 0 1 1 2 4 2 1 2 11 16 14 12 17 21 23 17 17 17 16 14 12 11 11 11
22 20 20 23 22 21 19 18 21 21 19 15 3 4 14 14 4 2 3 2 2 2 2 2 3 1 1 2 2 1 2 0 1 2 2 2 2 4 13 15 13 15 20 17 9 13 12 14 17 14 13 11 11 10
22 19 20 21 21 22 20 19 23 19 11 6 10 12 10 2 2 1 1 1 1 2 5 5 5 5 1 1 1 0 1 2 3 2 1 2 2 13 16 15 17 13 14 19 15 14 12 12 11 11 12 13 11 9
20 19 18 21 20 22 18 19 20 13 13 13 4 4 3 1 2 3 3 1 1 3 6 5 0 3 2 1 3 2 2 3 3 1 2 1 10 18 18 16 17 14 14 16 18 14 12 12 12 12 13 12 9 7
19 15 16 21 19 21 18 20 17 13 8 2 3 3 1 1 3 3 4 4 3 3 12 9 3 2 1 3 1 3 3 1 3 1 4 2 17 20 18 18 18 18 14 14 15 13 13 14 16 14 11 9 7 5
18 14 20 21 21 18 19 19 13 10 1 2 1 2 4 3 2 3 3 2 2 12 13 6 4 1 3 3 2 2 2 2 4 4 3 13 21 22 21 19 17 16 14 14 14 15 15 16 14 12 10 8 6 4
18 17 20 21 20 19 18 15 11 5 4 3 0 1 1 3 1 2 5 6 7 10 7 3 2 2 1 3 2 4 3 4 3 2 4 15 21 21 20 18 15 14 15 14 14 15 16 14 11 10 8 6 4 3
20 17 23 20 20 17 14 10 3 1 2 3 1 1 2 3 3 3 3 5 4 6 1 1 3 5 2 1 2 3 4 2 3 2 5 12 17 19 18 17 16 16 16 16 17 17 16 15 13 9 6 4 4 3
17 19 26 22 20 16 12 4 3 2 2 2 2 3 2 2 3 3 4 5 4 3 2 1 3 1 2 3 3 4 5 3 2 3 6 10 14 16 16 16 16 16 16 17 19 18 16 13 10 9 7 5 4 2
20 27 24 19 18 8 4 5 2 2 4 1 3 1 2 1 3 5 4 5 6 5 2 2 1 3 3 5 2 6 9 9 8 10 9 11 14 15 17 16 15 16 17 21 21 17 13 9 8 7 6 5 3 6
17 20 19 20 12 3 2 2 5 1 2 3 3 4 2 2 4 3 4 5 7 3 2 2 4 4 4 5 3 4 5 9 10 13 13 14 15 17 18 18 17 18 21 22 18 16 14 13 10 6 6 4 5 8
18 20 21 18 4 2 2 3 3 3 2 3 5 5 2 4 3 3 5 5 4 4 5 10 10 8 9 7 6 6 5 8 9 9 8 17 19 19 19 18 18 21 24 23 20 17 15 10 5 4 3 5 8 11
15 24 20 12 2 1 2 4 2 4 4 2 7 4 2 3 5 6 6 7 6 10 8 5 8 9 11 8 8 6 5 8 9 10 9 10 20 23 22 21 23 23 23 20 18 14 11 9 6 6 7 10 12 13
19 13 7 4 3 1 3 4 4 5 2 6 4 1 2 3 4 8 3 6 7 12 16 16 12 11 9 9 9 8 8 9 11 10 9 10 15 17 18 19 19 21 21 18 14 11 9 8 8 8 10 11 12 13
15 7 5 5 6 3 2 3 5 5 4 3 3 2 2 4 7 2 3 5 9 10 10 12 13 12 11 10 11 10 10 9 9 7 7 10 14 15 15 16 17 16 14 14 13 10 8 9 10 10 10 11 11 11
4 6 4 5 6 4 2 1 2 2 2 2 3 1 3 5 2 3 3 6 11 13 13 12 12 12 12 12 11 10 9 9 8 7 7 9 12 16 18 16 16 17 14 12 12 11 10 10 10 10 10 10 10 11
3 8 9 10 8 7 7 5 5 5 3 3 5 4 4 3 2 6 4 4 6 6 8 10 11 11 10 10 11 13 12 10 8 8 8 11 13 17 19 18 18 15 13 10 9 10 10 10 10 9 9 10 10 10
5 6 7 8 5 4 2 2 6 4 4 5 3 3 3 4 6 5 4 5 4 5 6 6 7 7 8 9 10 12 12 10 7 5 11 13 12 10 7 4 7 8 9 9 9 9 9 9 8 8 9 8 9 10
6 8 6 8 7 7 3 2 4 6 4 7 13 4 7 7 4 3 4 4 5 6 7 9 8 7 7 8 11 13 14 13 11 10 12 13 13 13 14 8 8 7 8 8 7 7 7 7 8 7 7 8 9 10
5 6 8 3 3 4 7 5 6 7 6 10 6 4 4 4 4 5 6 5 6 5 5 7 8 9 9 10 10 11 9 12 14 17 17 17 16 15 14 11 8 8 8 7 6 6 6 5 4 4 5 7 9 11
8 13 5 4 4 5 4 5 3 5 6 7 5 4 4 5 5 7 7 6 8 6 5 6 9 13 13 15 16 16 14 12 12 10 10 12 13 12 13 12 9 8 6 5 5 4 4 2 2 4 6 8 11 13
9 12 4 3 3 3 5 6 5 5 6 6 7 6 4 4 6 9 9 8 10 7 6 8 11 14 15 17 16 16 17 16 14 12 8 6 11 12 12 11 9 7 7 6 6 4 2 1 2 5 7 9 12 14
8 7 7 3 2 5 6 5 4 4 4 5 5 5 5 5 5 5 10 12 12 10 8 9 11 15 15 14 12 12 12 14 15 11 8 7 12 13 12 11 10 8 8 6 4 2 0 3 5 7 9 11 12 13
5 5 4 5 4 4 5 5 6 3 3 3 4 6 7 4 4 7 8 14 14 10 10 10 11 12 13 11 11 11 10 11 12 11 11 11 11 13 13 12 11 9 7 4 2 0 2 5 7 9 9 10 11 12
Wind_Direction
136 137 135 140 142 144 141 140 139 141 143 145 148 148 149 147 146 157 144 153 145 111 131 126 123 131 140 144 131 303 46 355 14 58 6 357 336 350 58 54 351 29 349 16 343 81 96 1 358 66 114 96 108 92
136 131 138 137 136 138 140 141 140 142 139 144 151 152 148 142 133 139 125 123 127 116 130 136 113 75 114 158 139 65 119 221 242 59 6 347 3 357 6 8 4 45 18 69 22 93 68 40 62 84 125 125 119 118
144 137 138 136 136 135 139 148 143 146 145 142 148 154 154 152 130 128 123 119 115 106 95 106 103 105 83 105 119 95 94 32 64 358 194 285 32 341 18 2 79 9 19 83 140 53 76 78 79 90 107 113 121 123
152 146 144 140 137 138 140 146 147 146 147 144 146 148 149 147 134 124 115 112 121 106 105 118 125 136 143 80 87 85 96 13 348 10 117 110 359 16 72 118 83 317 336 84 73 95 97 68 85 103 108 115 118 116
163 154 149 142 142 142 143 142 143 142 145 153 147 145 144 146 141 118 101 92 95 107 138 134 118 166 134 78 118 116 76 4 2 42 39 54 346 68 58 87 43 355 105 150 193 164 107 126 135 122 120 123 127 125
139 146 148 147 149 149 150 146 140 139 137 143 154 150 149 148 146 129 96 87 85 77 98 88 83 122 157 137 142 290 305 331 334 339 297 275 110 115 105 77 53 33 135 145 145 157 148 144 148 151 141 142 137 135
146 150 153 154 152 156 154 148 148 139 136 139 146 149 149 143 149 101 100 124 111 80 81 45 7 88 197 196 220 240 256 269 291 313 260 158 60 78 80 143 144 102 115 122 127 122 118 139 152 153 144 143 146 140
147 151 151 149 147 148 150 149 151 146 142 136 137 137 131 120 103 96 104 113 127 82 86 94 301 27 145 192 192 188 194 235 227 273 250 137 100 76 94 154 133 139 135 141 154 244 171 154 150 150 150 150 143 129
142 141 145 146 143 144 147 147 145 145 140 136 131 128 127 125 89 104 112 120 95 69 93 93 132 188 203 161 169 153 176 25 220 240 242 136 23 230 192 157 155 163 167 158 137 135 141 148 145 152 155 161 145 132
146 141 144 149 148 147 148 148 140 139 137 135 132 110 106 115 124 115 115 56 65 59 80 132 158 304 131 94 91 125 198 201 222 250 139 72 112 81 171 172 169 165 153 146 140 148 156 157 162 156 158 154 140 136
149 145 143 155 155 152 152 147 148 148 144 145 101 72 128 126 106 85 85 45 30 360 195 220 223 240 47 88 218 190 194 283 40 265 153 155 204 184 169 170 177 179 170 176 165 164 166 168 165 159 160 156 144 135
155 154 153 153 151 150 150 153 158 154 150 126 115 122 140 109 87 119 107 285 224 231 185 171 201 203 269 303 94 126 131 24 251 302 237 237 225 170 171 171 169 169 178 183 190 176 170 165 163 163 158 149 145 139
156 157 156 161 161 157 154 160 163 154 136 128 108 116 120 111 111 186 178 223 332 196 173 154 45 172 165 28 67 69 72 242 307 9 254 212 152 166 172 168 166 168 177 184 178 176 170 168 162 162 154 152 148 140
159 160 165 166 161 150 156 163 164 163 162 91 108 123 211 209 210 186 186 194 202 233 170 161 113 79 93 54 224 72 258 356 353 336 240 198 169 172 172 171 171 168 171 172 173 173 170 164 158 155 156 148 141 123
158 152 154 159 158 158 164 167 167 179 93 68 120 189 206 231 165 172 166 126 82 144 142 118 80 96 10 88 299 39 338 258 198 232 243 177 178 177 175 176 180 179 175 174 173 169 165 164 162 159 158 156 141 117
156 153 160 162 161 166 170 174 182 187 353 1 294 7 188 147 59 130 133 93 137 147 116 100 114 67 289 145 188 220 152 227 250 216 179 176 181 185 185 185 185 185 180 176 173 171 168 164 164 162 160 158 148 136
169 165 166 164 156 159 163 164 140 216 324 322 326 338 89 115 118 132 132 154 159 173 116 97 92 199 138 153 249 183 208 227 220 188 180 189 186 190 189 188 187 186 185 182 177 172 171 174 172 168 177 172 162 133
179 169 164 162 155 147 143 129 133 200 266 286 326 31 117 101 127 139 159 169 188 172 174 198 135 165 215 196 259 229 185 173 183 182 182 184 185 189 193 193 189 188 185 181 177 178 182 179 174 178 172 169 186 233
159 162 160 156 155 128 131 166 154 192 227 255 261 170 202 132 172 164 161 182 190 207 283 197 117 215 235 235 182 199 212 206 196 178 182 185 191 197 193 193 195 193 191 184 184 186 182 177 182 178 188 222 266 299
151 159 163 164 155 115 103 121 177 214 236 202 181 181 180 194 179 168 185 201 210 220 256 224 212 228 225 282 258 284 273 216 202 177 182 189 193 198 198 199 199 194 186 185 186 186 186 192 198 195 206 260 304 315
159 164 166 162 163 60 173 181 198 204 183 178 179 169 153 143 158 181 193 196 210 233 244 237 239 251 249 258 275 289 252 221 218 221 218 196 196 196 196 200 199 191 189 189 191 191 196 202 203 214 253 293 303 313
153 167 155 162 112 310 273 197 202 172 171 166 162 193 161 188 197 197 183 197 230 235 231 243 258 261 246 256 273 256 227 216 213 221 222 214 196 194 200 198 191 191 192 195 197 200 202 198 213 248 260 276 290 297
154 151 138 159 206 260 246 192 176 180 124 170 154 173 242 208 186 161 240 238 256 253 248 254 254 253 242 248 237 227 224 224 222 228 230 216 204 207 205 195 194 192 190 189 186 193 198 212 233 239 253 276 292 298
153 151 178 205 199 238 207 207 175 153 135 162 166 232 234 153 156 195 256 248 239 242 244 245 244 231 226 227 228 228 223 207 208 206 209 205 195 193 193 189 183 183 182 182 188 199 216 232 239 256 276 292 295 294
152 197 190 208 198 181 214 234 174 110 167 178 130 247 197 157 123 236 237 258 241 243 239 232 229 232 238 239 226 217 206 202 207 204 196 194 185 169 165 169 173 175 182 193 202 213 221 232 249 267 279 285 297 303
200 205 188 197 182 167 190 163 184 176 149 157 214 149 153 169 232 240 235 244 257 245 238 228 226 226 234 233 225 212 197 186 194 203 192 179 188 184 177 179 184 192 193 203 219 224 230 242 254 262 279 296 301 298
221 214 202 210 196 181 165 172 156 135 166 181 175 153 117 197 236 242 220 222 226 228 224 227 235 243 253 232 208 198 192 187 190 205 177 167 174 187 190 181 205 209 210 218 228 239 244 243 250 268 283 289 291 299
244 197 170 184 197 196 154 122 162 185 206 175 147 175 186 201 236 202 192 226 233 217 210 206 216 230 233 222 210 199 191 186 182 183 180 178 189 196 198 202 190 201 217 221 218 228 236 244 253 263 278 294 307 312
215 194 176 153 167 194 213 190 214 201 184 180 169 202 223 215 221 206 204 199 196 185 220 217 211 209 201 193 190 189 199 197 189 181 183 183 182 182 187 197 204 202 198 211 216 217 221 231 250 278 297 304 308 312
187 178 172 172 176 210 203 205 197 190 190 192 193 184 204 221 212 216 216 209 210 218 242 235 221 206 201 193 187 186 191 194 200 203 203 202 195 195 196 197 196 200 212 211 203 194 191 210 257 291 307 313 317 321
165 175 135 163 194 203 191 184 179 184 195 210 225 235 217 220 231 224 217 210 202 210 213 200 198 198 202 199 197 195 192 195 197 196 202 193 193 192 190 191 193 190 182 172 167 170 184 236 302 315 318 318 318 318
170 176 150 144 175 164 170 188 186 202 208 212 215 213 210 217 234 220 208 201 197 195 192 200 204 199 199 200 200 202 205 203 199 202 194 178 181 183 183 179 175 168 164 162 164 167 313 328 327 324 321 321 324 328
130 135 117 123 143 175 180 171 193 191 209 225 220 208 205 212 242 208 200 195 187 186 184 186 193 194 188 186 191 194 193 189 181 163 155 159 164 165 164 162 160 157 155 152 149 345 332 331 329 328 329 332 335 339